Regional Weather Roundup
Issued by NWS

Home | Current Version | Previous Version | Graphics & Text | Print | Product List | Glossary On
Versions: 1 2 3 4 5 6 7 8 9 10 11 12 13 14 15 16 17 18 19 20 21 22 23 24 25 26 27 28 29 30 31 32 33 34 35 36 37 38 39 40 41 42 43 44 45 46 47 48 49 50
325
ASUS44 KMEG 271000
RWRTN
TENNESSEE HOURLY STATE WEATHER ROUNDUP
NATIONAL WEATHER SERVICE MEMPHIS TN
500 AM CDT WED JUL 27 2016

TNZ002-004-019-021-049-052-054-088>092-271100-
WEST TENNESSEE

CITY           SKY/WX    TMP DP  RH WIND       PRES   REMARKS
MEMPHIS INTL   PTCLDY    81  72  74 SE6       29.95R
NWS MEMPHIS      N/A     76 N/A N/A MISG        N/A
JACKSON        CLEAR     73  73 100 E3        29.97R
DYERSBURG      CLEAR     73  70  88 MISG      29.97R
UNION CITY     CLEAR     73  72  94 CALM      29.96R
PARIS          CLEAR     72  72 100 CALM      29.98R
LEXINGTON      CLEAR     72  70  94 CALM      29.97R
$$

TNZ008-025-027-028-033-062-065-066-271100-
NORTH MIDDLE TENNESSEE

CITY           SKY/WX    TMP DP  RH WIND       PRES   REMARKS
NASHVILLE      PTCLDY    75  72  90 CALM      30.00R
CLARKSVILLE    CLEAR     74  72  93 CALM      29.97S
COOKEVILLE     CLEAR     73  72  94 CALM      30.03R
CROSSVILLE     CLEAR     73  69  87 SW5       30.08R
$$

TNZ061-075-076-078-094-096-097-271100-
SOUTH MIDDLE TENNESSEE

CITY           SKY/WX    TMP DP  RH WIND       PRES   REMARKS
TULLAHOMA      CLEAR     73  70  88 CALM      30.04R
WINCHESTER     CLEAR     73  72  94 CALM      30.03R
MCMINNVILLE    CLEAR     73  73 100 CALM      30.03R
COLUMBIA       CLEAR    N/A N/A N/A CALM      29.98R
SHELBYVILLE    CLEAR     73  73 100 E5        30.02R
$$

TNZ017-018-042-046-047-271100-
NORTHEAST TENNESSEE

CITY           SKY/WX    TMP DP  RH WIND       PRES   REMARKS
TRI CITIES     TSTM      72  71  97 NW3       30.07R FOG
$$

TNZ012-013-036-069-073-074-271100-
CENTRAL EAST TENNESSEE

CITY           SKY/WX    TMP DP  RH WIND       PRES   REMARKS
KNOXVILLE      PTCLDY    75  71  87 SW5       30.02R
OAK RIDGE      CLEAR     78  71  79 CALM      30.04R
GATLINBURG     CLEAR     72  70  94 SW3       30.03R
$$

TNZ083-085-099-271100-
SOUTHEAST TENNESSEE

CITY           SKY/WX    TMP DP  RH WIND       PRES   REMARKS
CHATTANOOGA    PTCLDY    77  71  82 CALM      30.02R
$$

SKY/WX REPORTED AS FAIR MEANS FEW OR NO CLOUDS BELOW
12 THOUSAND FEET.





USA.gov is the U.S. government's official web portal to all federal, state and local government web resources and services.